STARLINK-1844 (47134 NORAD) Tracking and Keplerian Element Data

This shows tracking and keplerian element data for the satellite.

Feedback or suggestion? Click here.




ElementValue
Catalog47134
NameSTARLINK-1844
Epoch Orbit180
Epoch Day60.91667824
Epoch Year2021
RAAN252.2033
Inclination53.052
Eccentricity0.0002998
Argument of Perigee342.1825
Mean Anonmoly197.3095
Mean Motion15.02299161
Decay Rate0.0002726
L11 47134U 20088N 21060.91667824 .00027260 00000-0 20543-2 0 9992
L22 47134 53.0520 252.2033 0002998 342.1825 197.3095 15.02299161 1805

Live tracking and technical data element details for STARLINK-1844 (NORAD 47134). STARLINK-1844 can be tracked NOW for your location showing map with azimuth and elevation plus other details from your city location.

Track the satellite on the map from your city or location and see movement details for azimuth, elevation, latitude, longitude, range, height, and movement on the map or in text.







IsCatalogInMostPopularTable: catalog: 47134, numindb: 25
Update: records affected: 1



GetName: 47134 STARLINK-1844

Hit Count: updated at: Tue, 02 Mar 2021 15:06:21 GMT